Home > Time Zones > World Clock > Weather > U.S.A. > Bend > Past weeks

Flag for U.S.A. Weather past 2 weeks in Bend, Oregon, U.S.A.

Now
50 °F

Overcast.


Feels Like: 46 °F
Forecast: 42 / 55 °F
Wind: 10 mph from Southwest

Location: Roberts Field Airport

Current Time: Oct 21, 2014 at 11:48:42 AM

Latest Report: Oct 21, 2014 at 10:56 AM


Visibility: 10 mi

Pressure: 30.03 "Hg

Humidity: 61%

Dew point: 37 °F

Location of BendLocation

Historic Weather in Bend — Graph

°F

Bend temperature yesterday

Maximum temperature yesterday: 63 °F (at 10:56 AM)
Minimum temperature yesterday: 41 °F (at 3:56 AM)
Average temperature yesterday: 50 °F

Past Weeks' High & Low Weather Summary

 TemperatureHumidityPressure
High85 °F (Oct 6, 1:56 PM)97% (Oct 20, 9:56 PM)30.31 "Hg (Oct 20, 9:56 PM)
Low30 °F (Oct 9, 6:56 AM)10% (Oct 13, 2:56 PM)29.56 "Hg (Oct 15, 2:56 AM)
Average55 °F52%29.94 "Hg
* Reported Oct 6 10:56 AM — Oct 21 10:56 AM, Bend, Weather by CustomWeather, © 2014

Note: Actual official high and low records may vary slightly from our data, if they occured in-between our weather recording intervals... More about our weather records

Advertising

Bend weather history for previous 24 hours

 ConditionsComfort  
Time TempWeatherWind HumidityBarometerVisibility
10:56 AM
Oct 21
50 °FOvercast.10 mph61%30.03 "Hg10 mi
9:56 AM48 °FBroken clouds.7 mph68%30.03 "Hg10 mi
8:56 AM45 °FSunny.6 mph80%30.02 "Hg10 mi
7:56 AM36 °FPassing clouds.No wind89%30.02 "Hg10 mi
6:56 AM34 °FPassing clouds.6 mph92%30.00 "Hg10 mi
5:56 AM33 °FClear.7 mph92%29.98 "Hg10 mi
4:56 AM34 °FClear.6 mph92%29.96 "Hg10 mi
3:56 AM35 °FClear.3 mph92%29.95 "Hg10 mi
2:56 AM34 °FClear.6 mph88%29.93 "Hg10 mi
1:56 AM35 °FClear.3 mph92%29.93 "Hg10 mi
12:56 AM40 °FClear.5 mph89%29.92 "Hg10 mi
11:56 PM
Oct 20
41 °FFog.No wind96%29.90 "Hg4 mi
10:56 PM44 °FPassing clouds.3 mph93%29.87 "Hg10 mi
9:56 PM43 °FPartly cloudy.6 mph97%29.86 "Hg10 mi
8:56 PM45 °FPassing clouds.No wind90%29.84 "Hg10 mi
7:56 PM46 °FMostly cloudy.No wind89%29.85 "Hg10 mi
6:56 PM47 °FPassing clouds.5 mph86%29.84 "Hg10 mi
5:56 PM48 °FSunny.7 mph86%29.83 "Hg10 mi
4:56 PM50 °FScattered clouds.3 mph83%29.83 "Hg10 mi
3:56 PM48 °FMostly cloudy.9 mph89%29.84 "Hg10 mi
2:56 PM49 °FLight rain. Overcast.6 mph84%29.85 "Hg6 mi
1:56 PM53 °FLight rain. Overcast.10 mph69%29.78 "Hg10 mi
12:56 PM53 °FMore clouds than sun.6 mph69%29.79 "Hg10 mi
11:56 AM53 °FOvercast.15 mph72%29.78 "Hg10 mi
Weather by CustomWeather, © 2014

See weather overviewHow to use our weather pages